[[{"header":{"parameterUnit":"m.s-1","parameterCategory":1,"la1":30.2991,"la2":30.254,"lo1":-89.0895,"lo2":-89.0444,"dy":0.0017,"dx":0.0017,"nx":28,"ny":28,"refTime":"2025-08-09T03:00:00:Z","depth":0,"parameterNumber":2,"parameterNumberName":"U-component_of_WINDS"},"data":[0,0,0,0,0,0,0,0,0,0,0,0,0,0,0,0,0,0,0,0,0,0,0,0,0,0,0,0,0,0,0,0,0,0,0,0,0,0,0,0,0,0,0,0,0,0,0,0,0,0,0,0,0,0,0,0,0,0,-2.2557,-2.2557,0,-2.2571,-2.2572,-2.2572,-2.2505,-2.2503,-2.2501,-2.2499,-2.2516,-2.2519,-2.2521,0,0,0,0,0,0,0,0,0,0,0,0,0,-2.2477,-2.2478,-2.2557,-2.2557,-2.2558,-2.2571,-2.2572,-2.2572,-2.2505,-2.2503,-2.25,-2.2498,-2.2516,-2.2518,-2.2521,0,0,0,0,0,0,0,0,0,0,0,0,0,-2.2503,-2.2479,-2.2557,-2.2526,-2.2523,-2.2571,-2.2572,-2.2572,-2.2506,-2.2503,-2.25,-2.2497,-2.2515,-2.2518,-2.2521,-2.2601,0,0,-2.2532,-2.2533,0,0,0,0,0,0,0,0,-2.2502,-2.2506,-2.253,-2.2528,-2.2525,-2.2533,-2.2549,-2.2582,-2.2506,-2.2512,-2.2499,-2.2495,-2.2525,-2.2527,-2.2536,-2.2602,-2.2603,-2.2532,-2.2534,-2.2536,-2.2537,0,0,0,0,0,0,0,-2.25,-2.2506,-2.2563,-2.2531,-2.2528,-2.2513,-2.2513,-2.2555,-2.2535,-2.2512,-2.2507,-2.2509,-2.2523,-2.2533,-2.2536,-2.2603,-2.2532,-2.2535,-2.2537,-2.2539,-2.2739,-2.2742,0,0,0,0,0,0,-2.2502,-2.2504,-2.2562,-2.2563,-2.2506,-2.2516,-2.2517,-2.2534,-2.2534,-2.2531,-2.2512,-2.2506,-2.2529,-2.2532,-2.2536,-2.2633,-2.2536,-2.2539,-2.2541,-2.2736,-2.274,-2.2743,0,0,0,0,0,0,-2.2501,-2.2508,-2.2562,-2.2533,-2.2538,-2.2521,-2.254,-2.2536,-2.2546,-2.2534,-2.2531,-2.2526,-2.2526,-2.2532,-2.2586,-2.2632,-2.254,-2.2544,-2.2732,-2.2737,-2.2742,-2.2824,0,0,0,0,0,0,-2.2499,-2.2508,-2.2537,-2.2534,-2.254,-2.2611,-2.2543,-2.2538,-2.2552,-2.2544,-2.2547,-2.2544,-2.2525,-2.2582,-2.259,-2.2635,-2.2546,-2.2728,-2.2734,-2.274,-2.2818,-2.2832,-2.2844,0,0,0,0,0,-2.2496,-2.2559,-2.2539,-2.2546,-2.2576,-2.2613,-2.2617,-2.2592,-2.2555,-2.2586,-2.2579,-2.2544,-2.2625,-2.2588,-2.2596,-2.2644,-2.2725,-2.2732,-2.274,-2.2812,-2.2829,-2.2843,0,0,0,0,0,0,-2.2569,-2.2558,-2.2535,-2.2599,-2.2608,-2.2602,-2.2639,-2.2611,-2.263,-2.2623,-2.2592,-2.2593,-2.2654,-2.2654,-2.2612,-2.2723,-2.2669,-2.2679,-2.2721,-2.2737,-2.275,-2.275,-2.2549,0,0,0,0,0,-2.2592,-2.2622,-2.2612,-2.2669,-2.2675,-2.2656,-2.2672,-2.2652,-2.266,-2.2663,-2.266,-2.267,-2.2698,-2.2717,-2.2742,-2.2817,-2.2818,-2.2854,-2.2867,-2.2877,-2.2887,-2.293,-2.2946,-2.2768,-2.2767,-2.2767,0,0,-2.2641,-2.2639,-2.266,-2.2684,-2.2688,-2.2722,-2.266,-2.2697,-2.2723,-2.2669,-2.2721,-2.2719,-2.2729,-2.2795,-2.2823,-2.2796,-2.2936,-2.2887,-2.2895,-2.2899,-2.2939,-2.2956,-2.2971,-2.2772,-2.2772,-2.2771,0,0,-2.2748,-2.2748,-2.2798,-2.2803,-2.2811,-2.2798,-2.281,-2.2809,-2.2806,-2.2857,-2.2819,-2.2849,-2.2897,-2.2906,-2.2917,-2.303,-2.3001,-2.3039,-2.3108,-2.315,-2.3164,-2.3177,-2.322,-2.3236,-2.3048,-2.3048,-2.3048,0,-2.2808,-2.2856,-2.2827,-2.2868,-2.2881,-2.2834,-2.2885,-2.2892,-2.2908,-2.2919,-2.2888,-2.2949,-2.2952,-2.3021,-2.3049,-2.3058,-2.3073,-2.304,-2.3164,-2.3177,-2.3188,-2.3229,-2.3245,-2.3053,-2.3052,-2.3052,-2.3052,0,-2.2931,-2.2965,-2.3005,-2.3021,-2.3038,-2.3084,-2.3064,-2.3085,-2.3065,-2.3057,-2.3111,-2.3113,-2.3139,-2.3153,-2.3133,-2.3221,-2.3204,-2.3169,-2.3115,-2.321,-2.3249,-2.3264,-2.306,-2.3058,-2.3057,-2.3056,0,0,-2.3085,-2.3085,-2.3101,-2.3109,-2.3114,-2.3141,-2.3185,-2.321,-2.3231,-2.3243,-2.3282,-2.3325,-2.3294,-2.3306,-2.3287,-2.3323,-2.3417,-2.3284,-2.3284,-2.3312,-2.3517,-2.3546,-2.3564,-2.3396,-2.3399,-2.3401,-2.3518,0,-2.3192,-2.3268,-2.3244,-2.3322,-2.3355,-2.3311,-2.3351,-2.336,-2.3353,-2.3382,-2.3375,-2.3407,-2.3361,-2.3369,-2.3403,-2.3398,-2.3458,-2.3389,-2.3435,-2.3437,-2.3437,-2.3583,-2.3613,-2.3722,-2.3532,-2.3534,-2.3536,0,-2.3326,-2.3345,-2.3426,-2.3429,-2.3441,-2.3477,-2.35,-2.3526,-2.3537,-2.353,-2.3545,-2.3519,-2.3565,-2.351,-2.3575,-2.3529,-2.3546,-2.3547,-2.355,-2.3556,-2.3494,-2.3596,-2.3756,-2.3774,-2.3559,-2.3557,-2.3555,0,-2.3434,-2.3479,-2.3534,-2.3542,-2.3545,-2.3572,-2.3575,-2.3582,-2.3599,-2.3619,-2.3631,-2.3656,-2.3671,-2.3692,-2.3674,-2.3635,-2.3744,-2.3686,-2.3742,-2.3743,-2.3769,-2.3768,-2.3937,-2.3775,-2.3775,-2.3775,-2.3775,0,-2.3558,-2.361,-2.3583,-2.3617,-2.3675,-2.3648,-2.3707,-2.3705,-2.3712,-2.3746,-2.371,-2.3743,-2.3717,-2.3749,-2.3735,-2.3794,-2.38,-2.3797,-2.3794,-2.3802,-2.3803,-2.3815,-2.3808,-2.3779,-2.3778,-2.3777,-2.3777,0,-2.3688,-2.3672,-2.373,-2.3728,-2.3729,-2.3773,-2.3772,-2.3805,-2.3796,-2.3841,-2.385,-2.3837,-2.3873,-2.3857,-2.3895,-2.3886,-2.3962,-2.3946,-2.3959,-2.3956,-2.4014,-2.401,-2.4199,-2.4224,-2.4044,-2.4046,-2.4047,0,-2.377,-2.3809,-2.3812,-2.3832,-2.3838,-2.3871,-2.3889,-2.3864,-2.3885,-2.39,-2.3932,-2.3965,-2.399,-2.405,-2.4045,-2.4075,-2.4062,-2.4126,-2.4066,-2.4074,-2.4066,-2.4065,-2.4071,-2.4139,-2.4141,-2.4142,-2.4144,0,-2.3916,-2.3907,-2.3933,-2.3959,-2.3981,-2.3999,-2.4015,-2.4034,-2.401,-2.4036,-2.4072,-2.4091,-2.413,-2.4165,-2.4191,-2.4196,-2.4168,-2.4163,-2.4178,-2.4188,-2.4195,-2.4195,-2.3995,-2.4159,-2.4157,-2.4156,-2.4155,-2.4155,-2.4027,-2.4061,-2.4069,-2.4101,-2.411,-2.4126,-2.4158,-2.4153,-2.4183,-2.4213,-2.4196,-2.424,-2.4251,-2.4284,-2.4293,-2.4328,-2.4303,-2.4324,-2.433,-2.4336,-2.4345,-2.4187,-2.4332,-2.4332,-2.4331,-2.4331,-2.433,0,-2.4174,-2.4178,-2.4207,-2.4231,-2.4257,-2.4226,-2.4242,-2.4266,-2.4305,-2.4317,-2.4343,-2.4387,-2.442,-2.4418,-2.445,-2.4478,-2.4467,-2.4488,-2.4487,-2.4489,-2.4364,-2.4349,-2.4497,-2.4497,-2.4497,-2.4497,-2.4497,-2.4497,-2.4254,-2.4312,-2.4304,-2.4366,-2.4369,-2.4411,-2.4423,-2.4439,-2.4449,-2.4499,-2.4527,-2.4525,-2.4533,-2.4565,-2.4595,-2.4594,-2.4609,-2.4636,-2.463,-2.4514,-2.4497,-2.4482,-2.4468,-2.4638,-2.4639,-2.4752,-2.4754,-2.4754]},{"header":{"parameterUnit":"m.s-1","parameterCategory":1,"la1":30.2991,"la2":30.254,"lo1":-89.0895,"lo2":-89.0444,"dy":0.0017,"dx":0.0017,"nx":28,"ny":28,"refTime":"2025-08-09T03:00:00:Z","depth":0,"parameterNumber":3,"parameterNumberName":"V-component_of_WINDS"},"data":[0,0,0,0,0,0,0,0,0,0,0,0,0,0,0,0,0,0,0,0,0,0,0,0,0,0,0,0,0,0,0,0,0,0,0,0,0,0,0,0,0,0,0,0,0,0,0,0,0,0,0,0,0,0,0,0,0,0,2.7102,2.7101,0,2.706,2.706,2.7059,2.7035,2.7035,2.7035,2.7035,2.6986,2.6985,2.6984,0,0,0,0,0,0,0,0,0,0,0,0,0,2.7156,2.7155,2.7102,2.7101,2.7101,2.706,2.706,2.7059,2.7035,2.7035,2.7035,2.7035,2.6987,2.6985,2.6984,0,0,0,0,0,0,0,0,0,0,0,0,0,2.7125,2.7155,2.7102,2.7084,2.7082,2.706,2.706,2.7059,2.7035,2.7035,2.7035,2.7035,2.6987,2.6985,2.6983,2.6974,0,0,2.6978,2.6977,0,0,0,0,0,0,0,0,2.7127,2.7123,2.7087,2.7085,2.7083,2.7053,2.7061,2.703,2.7035,2.7053,2.7035,2.7035,2.7008,2.7004,2.6997,2.6972,2.697,2.6978,2.6976,2.6976,2.6975,0,0,0,0,0,0,0,2.7129,2.7125,2.7085,2.7087,2.7084,2.7077,2.7072,2.7055,2.7031,2.7051,2.705,2.7045,2.7007,2.6998,2.6995,2.6969,2.6978,2.6976,2.6975,2.6974,2.6934,2.6934,0,0,0,0,0,0,2.7135,2.7127,2.7086,2.7084,2.7105,2.7076,2.7071,2.7063,2.7032,2.7027,2.7045,2.7044,2.7002,2.6997,2.6993,2.6981,2.6976,2.6974,2.6973,2.6934,2.6934,2.6934,0,0,0,0,0,0,2.7136,2.7132,2.7088,2.7105,2.7099,2.7075,2.7066,2.7062,2.7054,2.7027,2.7022,2.7042,2.7001,2.6996,2.698,2.6979,2.6973,2.6971,2.6934,2.6934,2.6934,2.6955,0,0,0,0,0,0,2.7138,2.7132,2.7129,2.7105,2.7098,2.7077,2.7066,2.7061,2.7051,2.7049,2.7022,2.7018,2.7001,2.6982,2.6978,2.6976,2.697,2.6934,2.6934,2.6934,2.6954,2.6956,2.6957,0,0,0,0,0,2.714,2.7135,2.7129,2.7125,2.7095,2.7077,2.7072,2.7055,2.7051,2.7048,2.7031,2.7018,2.698,2.6981,2.6975,2.6973,2.6934,2.6934,2.6934,2.6953,2.6955,2.6957,0,0,0,0,0,0,2.7158,2.7132,2.7125,2.7113,2.7098,2.7073,2.7067,2.7058,2.7041,2.704,2.7017,2.7011,2.6997,2.6983,2.6985,2.6962,2.6955,2.6954,2.6972,2.6973,2.6975,2.6978,2.6968,0,0,0,0,0,2.7161,2.715,2.7127,2.7119,2.7112,2.7091,2.7083,2.7071,2.7053,2.7046,2.7028,2.7009,2.6993,2.6982,2.6966,2.6952,2.6946,2.6948,2.6949,2.6951,2.695,2.6941,2.6942,2.6935,2.6935,2.6935,0,0,2.7166,2.7151,2.7145,2.7122,2.7109,2.7097,2.7086,2.7073,2.7064,2.7043,2.7027,2.7013,2.6991,2.6976,2.6969,2.6964,2.695,2.6951,2.6952,2.695,2.6941,2.6942,2.6943,2.6935,2.6935,2.6935,0,0,2.717,2.7157,2.7149,2.7137,2.7117,2.7104,2.7102,2.7079,2.707,2.7054,2.7038,2.7026,2.6998,2.6983,2.6972,2.6972,2.6959,2.6967,2.6973,2.6965,2.6966,2.6966,2.6966,2.6966,2.6966,2.6966,2.6966,0,2.7178,2.7161,2.7146,2.7135,2.7125,2.7109,2.7099,2.7087,2.7063,2.7055,2.7052,2.7018,2.7001,2.6983,2.6983,2.6974,2.6971,2.6969,2.6968,2.6968,2.6968,2.6967,2.6967,2.6967,2.6967,2.6967,2.6967,0,2.7172,2.7161,2.7156,2.7136,2.7125,2.7115,2.7097,2.7088,2.7077,2.7064,2.7048,2.7028,2.7008,2.7002,2.6991,2.6982,2.698,2.6972,2.6965,2.697,2.6969,2.6968,2.6968,2.6968,2.6968,2.6968,0,0,2.7185,2.7157,2.7156,2.7146,2.7125,2.7114,2.7103,2.7085,2.7078,2.7062,2.7051,2.7029,2.7022,2.701,2.6996,2.699,2.699,2.6982,2.6982,2.6984,2.6979,2.6984,2.6984,2.6983,2.6982,2.6982,2.698,0,2.7185,2.7166,2.7152,2.7138,2.7127,2.7112,2.7102,2.7087,2.7074,2.7061,2.7046,2.7031,2.7024,2.7016,2.7009,2.6992,2.6989,2.6992,2.6971,2.697,2.6976,2.6984,2.6989,2.6988,2.698,2.698,2.698,0,2.7182,2.7169,2.7155,2.7135,2.7129,2.7121,2.7104,2.7093,2.7075,2.7066,2.7053,2.704,2.7026,2.7021,2.7001,2.7003,2.6994,2.6984,2.6984,2.698,2.6975,2.698,2.6987,2.6987,2.6979,2.6979,2.6979,0,2.7193,2.7171,2.716,2.7152,2.7129,2.7123,2.7113,2.7095,2.7085,2.707,2.7063,2.7045,2.7035,2.7021,2.7003,2.7001,2.6985,2.6978,2.6976,2.6976,2.6972,2.6972,2.6978,2.6967,2.6967,2.6967,2.6967,0,2.7194,2.7185,2.7164,2.7157,2.7147,2.7131,2.712,2.7108,2.7093,2.7082,2.7067,2.7057,2.7035,2.7021,2.7007,2.6992,2.6988,2.6979,2.6975,2.698,2.6981,2.6973,2.6972,2.6967,2.6967,2.6967,2.6967,0,2.7203,2.7189,2.7176,2.7155,2.715,2.7143,2.7125,2.7117,2.7104,2.709,2.7086,2.7065,2.7049,2.703,2.7007,2.6997,2.6984,2.6978,2.699,2.6988,2.6987,2.6987,2.6986,2.6985,2.6976,2.6977,2.6977,0,2.7205,2.7198,2.7178,2.7171,2.7161,2.7149,2.714,2.7124,2.7114,2.7094,2.7088,2.7071,2.7057,2.7031,2.7013,2.6995,2.6989,2.699,2.6985,2.6991,2.6988,2.6988,2.6987,2.699,2.6991,2.6991,2.6991,0,2.7208,2.7202,2.719,2.7176,2.7166,2.7154,2.7141,2.7135,2.7116,2.7106,2.709,2.7079,2.7057,2.7039,2.702,2.7007,2.6995,2.6993,2.6991,2.6996,2.7003,2.6998,2.6993,2.6992,2.6992,2.6992,2.6992,2.6992,2.7213,2.7207,2.7192,2.718,2.7169,2.7157,2.7148,2.7136,2.7123,2.7105,2.7095,2.708,2.7062,2.7034,2.7022,2.7009,2.7005,2.7002,2.7002,2.7001,2.7003,2.7006,2.7005,2.7005,2.7005,2.7005,2.7005,0,2.7216,2.7206,2.7195,2.7178,2.7168,2.7161,2.7146,2.7137,2.7124,2.711,2.7097,2.7078,2.7062,2.7043,2.7025,2.7018,2.7012,2.7014,2.7014,2.7011,2.7007,2.701,2.7019,2.7019,2.7019,2.7019,2.7019,2.7019,2.7217,2.7206,2.7198,2.718,2.717,2.7156,2.7148,2.7137,2.7125,2.7107,2.7094,2.7083,2.7066,2.7047,2.7031,2.7026,2.7019,2.7022,2.7015,2.7012,2.7011,2.701,2.7013,2.7021,2.7021,2.702,2.702,2.702]}]]